Regional Weather Roundup
Issued by NWS

Home | Current Version | Previous Version | Graphics & Text | Print | Product List | Glossary On
Versions: 1 2 3 4 5 6 7 8 9 10 11 12 13 14 15 16 17 18 19 20 21 22 23 24 25 26 27 28 29 30 31 32 33 34 35 36 37 38 39 40 41 42 43 44 45 46 47 48 49 50
000
ASUS43 KIND 241709
RWRIN

WEATHER ROUNDUP FOR INDIANA
NATIONAL WEATHER SERVICE INDIANAPOLIS IN
1200 PM EST SAT JAN 24 2015

NOTE: "FAIR" INDICATES FEW OR NO CLOUDS BELOW 12,000 FEET WITH NO
SIGNIFICANT WEATHER AND/OR OBSTRUCTIONS TO VISIBILITY.

* - STATION DOES NOT REPORT WEATHER SUCH AS PRECIPITATION OR FOG.

+ - STATION NOT QUALITY CONTROLLED BY THE NATIONAL WEATHER SERVICE.
    USE DATA WITH CAUTION...ESPECIALLY DEWPOINT AND RELATIVE
    HUMIDITY OBSERVATIONS.

INZ001>003-010>013-019-020-241800-
NORTHWEST INDIANA

CITY           SKY/WX    TMP DP  RH WIND       PRES   REMARKS
GARY /AIRPORT/ PTSUNNY   41  27  56 W13       29.72S
KNOX *+        SUNNY     36  21  54 W9        29.70F
LA PORTE +     SUNNY     39  31  71 W5        29.69F
MICHIGAN CITY+ SUNNY     36  27  69 W6        29.70F
MONTICELLO +   MOSUNNY   36  32  85 W9        29.73S
RENSSELAER +   SUNNY     36  34  93 W9        29.73F
VALPARAISO     SUNNY     39  29  67 W13       29.70F

$$

LMZ046-743>745-241800-
SOUTHERN LAKE MICHIGAN

STATION/POSITION TIME  TEMP WIND        PRES
                       AIR  DIR/SP/G
                 (UTC) (F)  (DEG/KT/KT) (MB)
MICHIGAN CITY    1700   32  210/ 11/ 12   N/A

$$

INZ004-005-014>016-021>024-241800-
NORTH CENTRAL INDIANA

CITY           SKY/WX    TMP DP  RH WIND       PRES   REMARKS
ELKHART        CLOUDY    34  28  80 W9        29.68  HAZE    WCI  26
GOSHEN         CLOUDY    33  29  85 W12       29.68S FOG     WCI  24
LOGANSPORT +   CLOUDY    32  30  93 W9        29.72F WCI  24
PERU/GRISSOM   CLOUDY    32  28  85 W12       29.71F WCI  23
ROCHESTER +    CLOUDY    34  32  93 W7        29.71S FOG     WCI  28
SOUTH BEND     PTSUNNY   36  30  79 W10       29.68F
WARSAW +       CLOUDY    32  28  86 W6        29.69F FOG     WCI  26

$$

INZ006>009-017-018-025>027-241800-
NORTHEAST INDIANA

CITY           SKY/WX    TMP DP  RH WIND       PRES   REMARKS
ANGOLA *+      CLOUDY    30  27  86 W7        29.64F WCI  23
AUBURN +       CLOUDY    32  27  80 SW7       29.68F HAZE    WCI  26
FORT WAYNE     CLOUDY    31  27  85 W10       29.69F FOG     WCI  22
HUNTINGTON +   CLOUDY    31  24  74 W7        29.70F WCI  25

$$

INZ028-029-035-036-043>045-051>053-241800-
WEST CENTRAL INDIANA

CITY           SKY/WX    TMP DP  RH WIND       PRES   REMARKS
CRAWFORDSVL +  CLOUDY    32  25  74 W8        29.76  WCI  25
GREENCASTLE +  CLOUDY    32  25  74 W6        29.78S WCI  26
LAFAYETTE      SUNNY     35  30  82 W9        29.75S WCI  28
TERRE HAUTE    CLOUDY    34  28  79 NW8       29.81S WCI  27

$$

INZ030>032-037>040-046>048-054>057-064-065-241800-
CENTRAL INDIANA

CITY           SKY/WX    TMP DP  RH WIND       PRES   REMARKS
ANDERSON       CLOUDY    32  25  74 W8        29.74S WCI  25
CP ATTERBURY + MOSUNNY   37  28  70 SW12      29.77F
INDIANAPOLIS   CLOUDY    31  26  82 W13       29.76S WCI  21
-EAGLE CREEK   CLOUDY    32  27  81 VRB7      29.75S WCI  26
KOKOMO *+      CLOUDY    32  27  80 W12       29.72F WCI  23
MARION +       CLOUDY    32  28  84 W8        29.72F WCI  24
MT COMFORT *+  PTSUNNY   34  21  60 W12       29.75S WCI  25
SHELBYVILLE    PTSUNNY   36  27  69 W12       29.75F
ZIONSVILLE +   CLOUDY    32  27  80 W8        29.75S WCI  25

$$

INZ033-034-041-042-049-050-058-059-241800-
EAST CENTRAL INDIANA

CITY           SKY/WX    TMP DP  RH WIND       PRES   REMARKS
MUNCIE         CLOUDY    32  26  78 W12       29.72S HAZE    WCI  23

$$

INZ060-061-067>069-081>083-085>088-241800-
SOUTHWEST INDIANA

CITY           SKY/WX    TMP DP  RH WIND       PRES   REMARKS
EVANSVILLE     SUNNY     41  28  60 W10       29.88S
HUNTINGBURG *+ SUNNY     39  28  65 W14       29.85F
WASHINGTON +   MOSUNNY   38  28  68 W14       29.83S

$$

INZ062-063-066-070>080-084-089>092-241800-
SOUTH CENTRAL AND SOUTHEAST INDIANA

CITY           SKY/WX    TMP DP  RH WIND       PRES   REMARKS
BLOOMINGTON    CLOUDY    35  28  75 W9        29.79R WCI  28
NORTH VERNON + SUNNY     36  28  75 SW14      29.78F

$$



USA.gov is the U.S. government's official web portal to all federal, state and local government web resources and services.